Location: Wanzleben
(52.0609°N, 11.4408°E)
Time: 11:10:24
(UTC+00:00)

Cosmos 2263 Rocket - Pass Details

Date: 20 January 2021
Orbit: 825 x 847 km, 71.0° (Epoch: 24 February)

Event Time Altitude Azimuth Distance (km) Brightness Sun altitude
Rises 17:15:10 0° 217° (SW) 3,399 6.2 -14.1°
Reaches altitude 10° 17:17:38 10° 220° (SW) 2,466 5.5 -14.5°
Maximum altitude 17:23:16 69° 304° (WNW) 907 2.5 -15.3°
Enters shadow 17:28:54 10° 28° (NNE) 2,454 4.2 -16.1°
